STARLINK-2404

operational
NORAD ID: 48093 Int'l Des: 2021-027 Owner: SPXS Country: US Constellation: starlink
LEOCIRCULARSTARLINK_TYPE

关于 STARLINK-2404

正在加载描述...

实时位置

正在加载3D地球...

即将过境

高度历史

Altitude vs Time

uPlot chart will show altitude changes over time

两行轨道根数

1 48093U 21027B 25251.76010518 .00000316 00000-0 40115-4 0 9994
2 48093 53.0549 258.5337 0001279 84.6908 275.4226 15.06392269245135
Epoch: Sep 8, 2025 • Age: 16 hours

当前状态

高度 549.1 km
速度 7.59 km/s
星下点 -5.66°S, 110.58°E
发射日期 Apr 7, 2021
运行时间 4.4 years
类型 internet

技术详情

分类 Payload
质量 260.00 kg
干质量 248.00 kg
总质量 260.00 kg
长度 0.20 m
直径 2.80 m
跨度 9.00 m
形状 Box + pan
制造商 SPXS
平台类型 Starlink
阶段状态 In Orbit
所有者/国家 SPXS/US

大型星座

Loading constellations...